| time (UTC) | temp C | wind direction | speed KPH | gust KPH | rain 1hr cm | rain 24hr cm | rain mn cm | humidity % | barometer mb |
| 20260506043019 | 24 | 213 | 0.0 | 0.0 | 0.00 | 0.00 | 0.00 | 83 | 1007.0 |
| 20260506042840 | 24 | 187 | 0.0 | 0.0 | 0.00 | 0.00 | 0.00 | 83 | 1009.2 |
| 20260506042544 | 24 | 179 | 0.0 | 0.0 | 0.00 | 0.00 | 0.00 | 83 | 1007.1 |
| 20260506042316 | 24 | 188 | 0.0 | 0.0 | 0.00 | 0.00 | 0.00 | 83 | 1009.3 |
| 20260506042035 | 24 | 154 | 0.0 | 0.0 | 0.00 | 0.00 | 0.00 | 83 | 1006.9 |
| 20260506041832 | 24 | 170 | 0.0 | 0.0 | 0.00 | 0.00 | 0.00 | 83 | 1009.2 |
| 20260506041530 | 24 | 208 | 0.0 | 0.0 | 0.00 | 0.00 | 0.00 | 83 | 1006.9 |
| 20260506041329 | 24 | 174 | 0.0 | 0.0 | 0.00 | 0.00 | 0.00 | 83 | 1009.2 |
| 20260506041024 | 24 | 193 | 0.0 | 0.0 | 0.00 | 0.00 | 0.00 | 83 | 1006.7 |
| 20260506040824 | 24 | 136 | 0.0 | 0.0 | 0.00 | 0.00 | 0.00 | 83 | 1009.1 |
| 20260506040520 | 24 | 175 | 0.0 | 0.0 | 0.00 | 0.00 | 0.00 | 83 | 1006.8 |
| 20260506040338 | 24 | 180 | 0.0 | 0.0 | 0.00 | 0.00 | 0.00 | 83 | 1009.0 |
| 20260506040040 | 24 | 171 | 0.0 | 0.0 | 0.00 | 0.00 | 0.00 | 83 | 1006.8 |
| 20260506035813 | 24 | 168 | 0.0 | 0.0 | 0.00 | 0.00 | 0.00 | 83 | 1009.2 |
| 20260506035534 | 23 | 181 | 0.0 | 0.0 | 0.00 | 0.00 | 0.00 | 83 | 1006.7 |
| 20260506035330 | 24 | 189 | 0.0 | 0.0 | 0.00 | 0.00 | 0.00 | 83 | 1009.1 |
| 20260506035028 | 23 | 168 | 0.0 | 0.0 | 0.00 | 0.00 | 0.00 | 83 | 1006.7 |
| 20260506034825 | 24 | 183 | 0.0 | 0.0 | 0.00 | 0.00 | 0.00 | 83 | 1009.0 |
| 20260506034524 | 23 | 164 | 0.0 | 0.0 | 0.00 | 0.00 | 0.00 | 83 | 1006.7 |
| 20260506034339 | 24 | 217 | 0.0 | 0.0 | 0.00 | 0.00 | 0.00 | 83 | 1009.1 |
| 20260506034044 | 23 | 198 | 0.0 | 0.0 | 0.00 | 0.00 | 0.00 | 83 | 1006.6 |
| 20260506033814 | 23 | 163 | 0.0 | 0.0 | 0.00 | 0.00 | 0.00 | 83 | 1008.9 |
| 20260506033538 | 23 | 188 | 0.0 | 0.0 | 0.00 | 0.00 | 0.00 | 83 | 1006.5 |
| 20260506033331 | 23 | 193 | 0.0 | 0.0 | 0.00 | 0.00 | 0.00 | 83 | 1008.8 |
| 20260506033034 | 23 | 180 | 0.0 | 0.0 | 0.00 | 0.00 | 0.00 | 83 | 1006.4 |
| 20260506032827 | 23 | 195 | 0.0 | 0.0 | 0.00 | 0.00 | 0.00 | 83 | 1008.8 |
| 20260506032525 | 23 | 161 | 0.0 | 0.0 | 0.00 | 0.00 | 0.00 | 83 | 1006.5 |
| 20260506032323 | 23 | 176 | 0.0 | 0.0 | 0.00 | 0.00 | 0.00 | 83 | 1008.9 |
| 20260506032011 | 23 | 164 | 0.0 | 0.0 | 0.00 | 0.00 | 0.00 | 83 | 1006.6 |
| 20260506031820 | 23 | 160 | 0.0 | 0.0 | 0.00 | 0.00 | 0.00 | 82 | 1008.9 |
| 20260506031604 | 23 | 156 | 0.0 | 0.0 | 0.00 | 0.00 | 0.00 | 82 | 1006.5 |
| 20260506031335 | 24 | 157 | 0.0 | 0.0 | 0.00 | 0.00 | 0.00 | 82 | 1008.9 |
| 20260506031032 | 23 | 136 | 0.0 | 0.0 | 0.00 | 0.00 | 0.00 | 82 | 1006.5 |
| 20260506030829 | 24 | 179 | 0.0 | 0.0 | 0.00 | 0.00 | 0.00 | 81 | 1008.8 |
| 20260506030553 | 23 | 179 | 0.0 | 0.0 | 0.00 | 0.00 | 0.00 | 81 | 1006.5 |
| 20260506030325 | 24 | 180 | 0.0 | 0.0 | 0.00 | 0.00 | 0.00 | 81 | 1008.8 |
| 20260506030050 | 24 | 180 | 0.0 | 0.0 | 0.00 | 0.00 | 0.00 | 81 | 1006.4 |
| 20260506025821 | 24 | 179 | 0.0 | 0.0 | 0.00 | 0.00 | 0.00 | 81 | 1008.8 |
| 20260506025544 | 24 | 180 | 0.0 | 0.0 | 0.00 | 0.00 | 0.00 | 80 | 1006.5 |
| 20260506025318 | 24 | 179 | 0.0 | 0.0 | 0.00 | 0.00 | 0.00 | 80 | 1008.8 |
| 20260506025036 | 24 | 179 | 0.0 | 0.0 | 0.00 | 0.00 | 0.00 | 80 | 1006.3 |
| 20260506024814 | 25 | 179 | 0.0 | 0.0 | 0.00 | 0.00 | 0.00 | 80 | 1008.6 |
| 20260506024529 | 24 | 166 | 0.0 | 0.0 | 0.00 | 0.00 | 0.00 | 80 | 1006.3 |
| 20260506024333 | 25 | 172 | 0.0 | 0.0 | 0.00 | 0.00 | 0.00 | 80 | 1008.5 |
| 20260506024012 | 24 | 191 | 0.0 | 0.0 | 0.00 | 0.00 | 0.00 | 80 | 1006.1 |
| 20260506023827 | 25 | 179 | 0.0 | 0.0 | 0.00 | 0.00 | 0.00 | 79 | 1008.5 |
| 20260506023503 | 24 | 190 | 0.0 | 0.0 | 0.00 | 0.00 | 0.00 | 79 | 1006.0 |
| 20260506023322 | 25 | 158 | 0.0 | 0.0 | 0.00 | 0.00 | 0.00 | 79 | 1008.3 |
| 20260506023057 | 24 | 189 | 0.0 | 0.0 | 0.00 | 0.00 | 0.00 | 79 | 1005.8 |
| 20260506022821 | 25 | 178 | 0.0 | 0.0 | 0.00 | 0.00 | 0.00 | 79 | 1008.1 |
| 20260506022548 | 25 | 178 | 0.0 | 0.0 | 0.00 | 0.00 | 0.00 | 78 | 1005.6 |
| 20260506022315 | 25 | 175 | 0.0 | 0.0 | 0.00 | 0.00 | 0.00 | 78 | 1008.0 |
| 20260506022038 | 25 | 175 | 0.0 | 0.0 | 0.00 | 0.00 | 0.00 | 78 | 1005.7 |
| 20260506021831 | 25 | 174 | 0.0 | 4.8 | 0.00 | 0.00 | 0.00 | 78 | 1008.1 |
| 20260506021528 | 25 | 154 | 0.0 | 9.7 | 0.00 | 0.00 | 0.00 | 78 | 1005.7 |
| 20260506021347 | 25 | 154 | 0.0 | 9.7 | 0.00 | 0.00 | 0.00 | 77 | 1008.1 |
| 20260506021055 | 25 | 154 | 1.6 | 9.7 | 0.00 | 0.00 | 0.00 | 77 | 1005.8 |
| 20260506020822 | 25 | 154 | 6.4 | 9.7 | 0.00 | 0.00 | 0.00 | 77 | 1008.1 |
| 20260506020544 | 25 | 143 | 4.8 | 8.0 | 0.00 | 0.00 | 0.00 | 76 | 1005.6 |
| 20260506020318 | 25 | 175 | 4.8 | 8.0 | 0.00 | 0.00 | 0.00 | 76 | 1007.9 |
| 20260506020106 | 25 | 175 | 4.8 | 8.0 | 0.00 | 0.00 | 0.00 | 76 | 1005.6 |
| 20260506015833 | 26 | 175 | 4.8 | 8.0 | 0.00 | 0.00 | 0.00 | 76 | 1008.0 |
| 20260506015528 | 25 | 174 | 4.8 | 8.0 | 0.00 | 0.00 | 0.00 | 76 | 1005.4 |
| 20260506015331 | 26 | 175 | 8.0 | 9.7 | 0.00 | 0.00 | 0.00 | 75 | 1007.7 |
| 20260506015013 | 26 | 183 | 0.0 | 0.0 | 0.00 | 0.00 | 0.00 | 75 | 1005.4 |
| 20260506014825 | 26 | 182 | 0.0 | 8.0 | 0.00 | 0.00 | 0.00 | 75 | 1007.6 |
| 20260506014507 | 26 | 178 | 0.0 | 11.3 | 0.00 | 0.00 | 0.00 | 75 | 1005.3 |
| 20260506014322 | 26 | 179 | 0.0 | 11.3 | 0.00 | 0.00 | 0.00 | 75 | 1007.6 |
| 20260506014100 | 26 | 168 | 3.2 | 12.9 | 0.00 | 0.00 | 0.00 | 74 | 1005.2 |
| 20260506013817 | 26 | 161 | 8.0 | 12.9 | 0.00 | 0.00 | 0.00 | 74 | 1007.6 |
| 20260506013552 | 26 | 174 | 6.4 | 12.9 | 0.00 | 0.00 | 0.00 | 74 | 1005.1 |
| 20260506013315 | 26 | 187 | 9.7 | 12.9 | 0.00 | 0.00 | 0.00 | 74 | 1007.4 |
| 20260506013042 | 26 | 162 | 0.0 | 8.0 | 0.00 | 0.00 | 0.00 | 74 | 1005.0 |
| 20260506012829 | 26 | 183 | 0.0 | 0.0 | 0.00 | 0.00 | 0.00 | 73 | 1007.4 |
| 20260506012536 | 26 | 199 | 0.0 | 0.0 | 0.00 | 0.00 | 0.00 | 73 | 1004.9 |
| 20260506012326 | 26 | 167 | 0.0 | 0.0 | 0.00 | 0.00 | 0.00 | 73 | 1007.3 |
| 20260506012031 | 26 | 181 | 0.0 | 0.0 | 0.00 | 0.00 | 0.00 | 73 | 1004.9 |
| 20260506011822 | 27 | 164 | 0.0 | 0.0 | 0.00 | 0.00 | 0.00 | 73 | 1007.3 |
| 20260506011527 | 26 | 181 | 0.0 | 0.0 | 0.00 | 0.00 | 0.00 | 72 | 1005.0 |
| 20260506011318 | 27 | 194 | 0.0 | 0.0 | 0.00 | 0.00 | 0.00 | 72 | 1007.4 |
| 20260506011016 | 26 | 168 | 0.0 | 0.0 | 0.00 | 0.00 | 0.00 | 72 | 1005.0 |
| 20260506010815 | 27 | 162 | 0.0 | 0.0 | 0.00 | 0.00 | 0.00 | 72 | 1007.4 |
| 20260506010602 | 27 | 174 | 0.0 | 0.0 | 0.00 | 0.00 | 0.00 | 71 | 1004.9 |
| 20260506010330 | 27 | 186 | 0.0 | 0.0 | 0.00 | 0.00 | 0.00 | 71 | 1007.4 |
| 20260506010054 | 27 | 182 | 0.0 | 0.0 | 0.00 | 0.00 | 0.00 | 71 | 1004.9 |
| 20260506005825 | 27 | 173 | 0.0 | 0.0 | 0.00 | 0.00 | 0.00 | 71 | 1007.4 |
| 20260506005548 | 27 | 167 | 0.0 | 0.0 | 0.00 | 0.00 | 0.00 | 70 | 1004.9 |
| 20260506005322 | 27 | 172 | 0.0 | 0.0 | 0.00 | 0.00 | 0.00 | 70 | 1007.1 |
| 20260506005039 | 27 | 164 | 0.0 | 0.0 | 0.00 | 0.00 | 0.00 | 70 | 1004.8 |
| 20260506004819 | 27 | 156 | 0.0 | 0.0 | 0.00 | 0.00 | 0.00 | 69 | 1007.1 |
| 20260506004541 | 27 | 166 | 0.0 | 0.0 | 0.00 | 0.00 | 0.00 | 69 | 1004.8 |
| 20260506004317 | 28 | 210 | 0.0 | 0.0 | 0.00 | 0.00 | 0.00 | 69 | 1007.0 |
| 20260506004034 | 27 | 178 | 0.0 | 0.0 | 0.00 | 0.00 | 0.00 | 68 | 1004.8 |
| 20260506003828 | 28 | 173 | 0.0 | 0.0 | 0.00 | 0.00 | 0.00 | 68 | 1007.0 |
| 20260506003512 | 28 | 216 | 0.0 | 0.0 | 0.00 | 0.00 | 0.00 | 68 | 1004.6 |
| 20260506003324 | 28 | 183 | 0.0 | 0.0 | 0.00 | 0.00 | 0.00 | 68 | 1007.0 |
| 20260506003004 | 28 | 164 | 0.0 | 0.0 | 0.00 | 0.00 | 0.00 | 68 | 1004.6 |
| 20260506002821 | 28 | 162 | 0.0 | 0.0 | 0.00 | 0.00 | 0.00 | 67 | 1007.0 |
| 20260506002558 | 28 | 210 | 0.0 | 0.0 | 0.00 | 0.00 | 0.00 | 67 | 1004.6 |
| 20260506002338 | 28 | 172 | 0.0 | 0.0 | 0.00 | 0.00 | 0.00 | 67 | 1007.1 |
| 20260506002028 | 28 | 193 | 0.0 | 0.0 | 0.00 | 0.00 | 0.00 | 67 | 1004.6 |
| 20260506001833 | 28 | 196 | 0.0 | 0.0 | 0.00 | 0.00 | 0.00 | 66 | 1006.9 |
| 20260506001512 | 28 | 177 | 0.0 | 0.0 | 0.00 | 0.00 | 0.00 | 67 | 1004.6 |
| 20260506001327 | 28 | 192 | 0.0 | 0.0 | 0.00 | 0.00 | 0.00 | 67 | 1006.9 |
| 20260506001004 | 28 | 166 | 0.0 | 0.0 | 0.00 | 0.00 | 0.00 | 66 | 1004.5 |
| 20260506000822 | 28 | 168 | 0.0 | 0.0 | 0.00 | 0.00 | 0.00 | 66 | 1006.9 |
| 20260506000601 | 28 | 170 | 0.0 | 0.0 | 0.00 | 0.00 | 0.00 | 66 | 1004.6 |
| 20260506000320 | 29 | 181 | 0.0 | 0.0 | 0.00 | 0.00 | 0.00 | 66 | 1007.1 |
| 20260506000118 | 28 | 162 | 0.0 | 0.0 | 0.00 | 0.00 | 0.00 | 66 | 1004.6 |
| 20260505235817 | 29 | 202 | 0.0 | 0.0 | 0.00 | 0.00 | 0.00 | 66 | 1007.1 |
| 20260505235546 | 28 | 178 | 0.0 | 0.0 | 0.00 | 0.00 | 0.00 | 66 | 1004.7 |
| 20260505235314 | 29 | 185 | 0.0 | 0.0 | 0.00 | 0.00 | 0.00 | 65 | 1007.0 |
| 20260505235041 | 28 | 210 | 0.0 | 0.0 | 0.00 | 0.00 | 0.00 | 66 | 1004.6 |
| 20260505234830 | 29 | 161 | 0.0 | 0.0 | 0.00 | 0.00 | 0.00 | 66 | 1006.9 |
| 20260505234532 | 28 | 168 | 0.0 | 0.0 | 0.00 | 0.00 | 0.00 | 66 | 1004.5 |
| 20260505234326 | 29 | 150 | 0.0 | 0.0 | 0.00 | 0.00 | 0.00 | 65 | 1007.0 |
| 20260505234026 | 28 | 155 | 0.0 | 0.0 | 0.00 | 0.00 | 0.00 | 65 | 1004.7 |
| 20260505233823 | 29 | 159 | 0.0 | 0.0 | 0.00 | 0.00 | 0.00 | 65 | 1007.1 |
| 20260505233506 | 28 | 195 | 0.0 | 0.0 | 0.00 | 0.00 | 0.00 | 64 | 1004.7 |
| 20260505233318 | 29 | 195 | 0.0 | 0.0 | 0.00 | 0.00 | 0.00 | 65 | 1007.0 |
| 20260505233058 | 29 | 166 | 0.0 | 0.0 | 0.00 | 0.00 | 0.00 | 64 | 1004.5 |
| 20260505232814 | 29 | 162 | 0.0 | 0.0 | 0.00 | 0.00 | 0.00 | 64 | 1006.9 |
| 20260505232548 | 29 | 207 | 0.0 | 0.0 | 0.00 | 0.00 | 0.00 | 63 | 1004.5 |
| 20260505232332 | 29 | 195 | 0.0 | 0.0 | 0.00 | 0.00 | 0.00 | 63 | 1006.9 |
| 20260505232040 | 29 | 206 | 0.0 | 0.0 | 0.00 | 0.00 | 0.00 | 63 | 1004.6 |
| 20260505231828 | 29 | 229 | 0.0 | 0.0 | 0.00 | 0.00 | 0.00 | 63 | 1006.9 |
| 20260505231534 | 29 | 200 | 0.0 | 0.0 | 0.00 | 0.00 | 0.00 | 62 | 1004.7 |
| 20260505231324 | 29 | 210 | 0.0 | 0.0 | 0.00 | 0.00 | 0.00 | 63 | 1007.1 |
| 20260505231028 | 29 | 193 | 0.0 | 0.0 | 0.00 | 0.00 | 0.00 | 62 | 1004.6 |
| 20260505230820 | 29 | 202 | 0.0 | 0.0 | 0.00 | 0.00 | 0.00 | 62 | 1006.9 |
| 20260505230517 | 29 | 191 | 0.0 | 0.0 | 0.00 | 0.00 | 0.00 | 62 | 1004.6 |
| 20260505230314 | 29 | 208 | 0.0 | 0.0 | 0.00 | 0.00 | 0.00 | 62 | 1006.9 |
| 20260505230016 | 29 | 181 | 0.0 | 0.0 | 0.00 | 0.00 | 0.00 | 62 | 1004.5 |
| 20260505225852 | 29 | 167 | 0.0 | 0.0 | 0.00 | 0.00 | 0.00 | 63 | 1006.9 |
| 20260505225540 | 29 | 223 | 0.0 | 0.0 | 0.00 | 0.00 | 0.00 | 62 | 1004.5 |
| 20260505225347 | 29 | 219 | 0.0 | 0.0 | 0.00 | 0.00 | 0.00 | 63 | 1006.8 |
| 20260505225002 | 29 | 223 | 0.0 | 0.0 | 0.00 | 0.00 | 0.00 | 62 | 1004.4 |
| 20260505224821 | 29 | 214 | 0.0 | 0.0 | 0.00 | 0.00 | 0.00 | 63 | 1006.8 |
| 20260505224543 | 29 | 204 | 0.0 | 0.0 | 0.00 | 0.00 | 0.00 | 63 | 1004.4 |
| 20260505224317 | 29 | 213 | 0.0 | 0.0 | 0.00 | 0.00 | 0.00 | 62 | 1006.8 |
| 20260505224018 | 29 | 166 | 0.0 | 0.0 | 0.00 | 0.00 | 0.00 | 62 | 1004.4 |
| 20260505223853 | 30 | 174 | 0.0 | 17.7 | 0.00 | 0.00 | 0.00 | 62 | 1006.7 |
| 20260505223549 | 29 | 183 | 0.0 | 19.3 | 0.00 | 0.00 | 0.00 | 61 | 1004.6 |
| 20260505223328 | 30 | 239 | 0.0 | 19.3 | 0.00 | 0.00 | 0.00 | 62 | 1006.9 |
| 20260505223041 | 29 | 234 | 14.5 | 19.3 | 0.00 | 0.00 | 0.00 | 61 | 1004.6 |
| 20260505222824 | 30 | 212 | 12.9 | 19.3 | 0.00 | 0.00 | 0.00 | 62 | 1006.9 |
| 20260505222537 | 29 | 217 | 8.0 | 16.1 | 0.00 | 0.00 | 0.00 | 62 | 1004.6 |
| 20260505222321 | 30 | 235 | 9.7 | 16.1 | 0.00 | 0.00 | 0.00 | 61 | 1006.9 |
| 20260505222024 | 29 | 240 | 8.0 | 17.7 | 0.00 | 0.00 | 0.00 | 61 | 1004.7 |
| 20260505221815 | 30 | 222 | 12.9 | 19.3 | 0.00 | 0.00 | 0.00 | 60 | 1006.9 |
| 20260505221508 | 29 | 212 | 9.7 | 19.3 | 0.00 | 0.00 | 0.00 | 62 | 1004.6 |
| 20260505221331 | 30 | 220 | 9.7 | 19.3 | 0.00 | 0.00 | 0.00 | 60 | 1006.8 |
| 20260505221101 | 30 | 202 | 9.7 | 17.7 | 0.00 | 0.00 | 0.00 | 61 | 1004.5 |
| 20260505220828 | 30 | 231 | 11.3 | 16.1 | 0.00 | 0.00 | 0.00 | 61 | 1006.9 |
| 20260505220555 | 30 | 215 | 8.0 | 16.1 | 0.00 | 0.00 | 0.00 | 61 | 1004.5 |
| 20260505220324 | 30 | 239 | 9.7 | 16.1 | 0.00 | 0.00 | 0.00 | 63 | 1006.9 |
| 20260505220104 | 30 | 203 | 9.7 | 17.7 | 0.00 | 0.00 | 0.00 | 62 | 1004.7 |
| 20260505215820 | 30 | 236 | 11.3 | 17.7 | 0.00 | 0.00 | 0.00 | 62 | 1006.9 |
| 20260505215539 | 29 | 210 | 8.0 | 14.5 | 0.00 | 0.00 | 0.00 | 63 | 1004.7 |
| 20260505215336 | 30 | 208 | 6.4 | 14.5 | 0.00 | 0.00 | 0.00 | 62 | 1006.8 |
| 20260505215003 | 29 | 165 | 11.3 | 20.9 | 0.00 | 0.00 | 0.00 | 62 | 1004.5 |
| 20260505214829 | 30 | 175 | 12.9 | 20.9 | 0.00 | 0.00 | 0.00 | 61 | 1006.8 |
| 20260505214605 | 29 | 214 | 11.3 | 20.9 | 0.00 | 0.00 | 0.00 | 62 | 1004.5 |
| 20260505214325 | 30 | 191 | 12.9 | 20.9 | 0.00 | 0.00 | 0.00 | 61 | 1006.9 |
| 20260505214048 | 29 | 206 | 11.3 | 16.1 | 0.00 | 0.00 | 0.00 | 61 | 1004.6 |
| 20260505213821 | 30 | 196 | 9.7 | 14.5 | 0.00 | 0.00 | 0.00 | 61 | 1006.8 |
| 20260505213541 | 29 | 218 | 4.8 | 14.5 | 0.00 | 0.00 | 0.00 | 63 | 1004.6 |
| 20260505213318 | 30 | 230 | 8.0 | 19.3 | 0.00 | 0.00 | 0.00 | 62 | 1007.0 |
| 20260505213034 | 29 | 225 | 11.3 | 19.3 | 0.00 | 0.00 | 0.00 | 62 | 1004.8 |
| 20260505212833 | 30 | 221 | 11.3 | 19.3 | 0.00 | 0.00 | 0.00 | 61 | 1007.1 |
| 20260505212518 | 29 | 170 | 9.7 | 22.5 | 0.00 | 0.00 | 0.00 | 63 | 1004.9 |
| 20260505212329 | 30 | 212 | 12.9 | 22.5 | 0.00 | 0.00 | 0.00 | 62 | 1007.2 |
| 20260505212010 | 29 | 193 | 12.9 | 22.5 | 0.00 | 0.00 | 0.00 | 62 | 1005.0 |
| 20260505211826 | 30 | 179 | 12.9 | 24.1 | 0.00 | 0.00 | 0.00 | 62 | 1007.3 |
| 20260505211502 | 29 | 184 | 6.4 | 16.1 | 0.00 | 0.00 | 0.00 | 63 | 1005.1 |
| 20260505211322 | 29 | 234 | 8.0 | 20.9 | 0.00 | 0.00 | 0.00 | 64 | 1007.4 |
| 20260505211059 | 29 | 207 | 6.4 | 20.9 | 0.00 | 0.00 | 0.00 | 63 | 1005.2 |
| 20260505210818 | 29 | 248 | 9.7 | 20.9 | 0.00 | 0.00 | 0.00 | 63 | 1007.6 |
| 20260505210545 | 29 | 239 | 8.0 | 19.3 | 0.00 | 0.00 | 0.00 | 63 | 1005.3 |
| 20260505210317 | 29 | 270 | 9.7 | 19.3 | 0.00 | 0.00 | 0.00 | 63 | 1007.6 |
| 20260505210044 | 29 | 199 | 12.9 | 19.3 | 0.00 | 0.00 | 0.00 | 62 | 1005.4 |
| 20260505205853 | 30 | 231 | 6.4 | 19.3 | 0.00 | 0.00 | 0.00 | 63 | 1007.6 |
| 20260505205504 | 29 | 228 | 0.0 | 0.0 | 0.00 | 0.00 | 0.00 | 64 | 1005.3 |
| 20260505205327 | 29 | 241 | 0.0 | 0.0 | 0.00 | 0.00 | 0.00 | 63 | 1007.7 |
| 20260505205058 | 29 | 220 | 0.0 | 0.0 | 0.00 | 0.00 | 0.00 | 64 | 1005.3 |
| 20260505204823 | 29 | 223 | 0.0 | 0.0 | 0.00 | 0.00 | 0.00 | 63 | 1007.7 |
| 20260505204559 | 29 | 219 | 0.0 | 0.0 | 0.00 | 0.00 | 0.00 | 64 | 1005.4 |
| 20260505204318 | 29 | 167 | 0.0 | 0.0 | 0.00 | 0.00 | 0.00 | 66 | 1007.6 |
| 20260505204041 | 28 | 171 | 0.0 | 0.0 | 0.00 | 0.00 | 0.00 | 64 | 1005.4 |
| 20260505203814 | 29 | 156 | 0.0 | 0.0 | 0.00 | 0.00 | 0.00 | 65 | 1007.7 |
| 20260505203534 | 28 | 201 | 0.0 | 0.0 | 0.00 | 0.00 | 0.00 | 64 | 1005.5 |
| 20260505203331 | 29 | 222 | 0.0 | 0.0 | 0.00 | 0.00 | 0.00 | 64 | 1007.8 |
| 20260505203029 | 28 | 199 | 0.0 | 0.0 | 0.00 | 0.00 | 0.00 | 65 | 1005.5 |
| 20260505202828 | 29 | 224 | 0.0 | 0.0 | 0.00 | 0.00 | 0.00 | 65 | 1007.8 |
| 20260505202512 | 28 | 226 | 0.0 | 0.0 | 0.00 | 0.00 | 0.00 | 65 | 1005.5 |
| 20260505202323 | 29 | 243 | 0.0 | 0.0 | 0.00 | 0.00 | 0.00 | 67 | 1007.9 |
| 20260505202005 | 28 | 233 | 0.0 | 0.0 | 0.00 | 0.00 | 0.00 | 66 | 1005.7 |
| 20260505201819 | 28 | 229 | 0.0 | 0.0 | 0.00 | 0.00 | 0.00 | 66 | 1008.1 |
| 20260505201600 | 28 | 187 | 0.0 | 0.0 | 0.00 | 0.00 | 0.00 | 66 | 1005.5 |
| 20260505201314 | 28 | 239 | 0.0 | 0.0 | 0.00 | 0.00 | 0.00 | 66 | 1007.9 |
| 20260505201051 | 28 | 233 | 0.0 | 0.0 | 0.00 | 0.00 | 0.00 | 66 | 1005.7 |
| 20260505200829 | 28 | 187 | 0.0 | 0.0 | 0.00 | 0.00 | 0.00 | 67 | 1008.0 |
| 20260505200543 | 28 | 206 | 0.0 | 0.0 | 0.00 | 0.00 | 0.00 | 66 | 1005.6 |
| 20260505200346 | 28 | 195 | 0.0 | 0.0 | 0.00 | 0.00 | 0.00 | 67 | 1007.8 |
| 20260505200008 | 28 | 240 | 0.0 | 0.0 | 0.00 | 0.00 | 0.00 | 68 | 1005.4 |
| 20260505195842 | 28 | 177 | 0.0 | 0.0 | 0.00 | 0.00 | 0.00 | 67 | 1007.8 |
| 20260505195537 | 28 | 210 | 0.0 | 0.0 | 0.00 | 0.00 | 0.00 | 68 | 1005.6 |
| 20260505195335 | 28 | 197 | 0.0 | 0.0 | 0.00 | 0.00 | 0.00 | 68 | 1008.0 |
| 20260505195101 | 28 | 247 | 0.0 | 0.0 | 0.00 | 0.00 | 0.00 | 70 | 1005.6 |
| 20260505194829 | 28 | 193 | 0.0 | 0.0 | 0.00 | 0.00 | 0.00 | 68 | 1008.1 |
| 20260505194554 | 28 | 201 | 0.0 | 0.0 | 0.00 | 0.00 | 0.00 | 68 | 1005.9 |
| 20260505194323 | 28 | 196 | 0.0 | 0.0 | 0.00 | 0.00 | 0.00 | 68 | 1008.1 |
| 20260505194032 | 28 | 172 | 0.0 | 0.0 | 0.00 | 0.00 | 0.00 | 69 | 1005.9 |
| 20260505193838 | 28 | 195 | 0.0 | 0.0 | 0.00 | 0.00 | 0.00 | 69 | 1008.1 |
| 20260505193550 | 27 | 212 | 0.0 | 0.0 | 0.00 | 0.00 | 0.00 | 69 | 1005.9 |
| 20260505193328 | 28 | 222 | 0.0 | 0.0 | 0.00 | 0.00 | 0.00 | 69 | 1008.2 |
| 20260505193013 | 28 | 245 | 0.0 | 0.0 | 0.00 | 0.00 | 0.00 | 70 | 1005.8 |
| 20260505192823 | 28 | 224 | 0.0 | 0.0 | 0.00 | 0.00 | 0.00 | 69 | 1008.0 |
| 20260505192505 | 27 | 168 | 0.0 | 0.0 | 0.00 | 0.00 | 0.00 | 69 | 1005.9 |
| 20260505192318 | 28 | 195 | 0.0 | 0.0 | 0.00 | 0.00 | 0.00 | 70 | 1008.1 |
| 20260505192037 | 27 | 228 | 0.0 | 0.0 | 0.00 | 0.00 | 0.00 | 69 | 1005.9 |
| 20260505191831 | 28 | 237 | 0.0 | 0.0 | 0.00 | 0.00 | 0.00 | 71 | 1008.2 |
| 20260505191534 | 27 | 238 | 0.0 | 0.0 | 0.00 | 0.00 | 0.00 | 70 | 1006.0 |
| 20260505191327 | 27 | 222 | 0.0 | 0.0 | 0.00 | 0.00 | 0.00 | 70 | 1008.3 |
| 20260505191025 | 27 | 218 | 0.0 | 0.0 | 0.00 | 0.00 | 0.00 | 71 | 1006.0 |
| 20260505190823 | 27 | 239 | 0.0 | 0.0 | 0.00 | 0.00 | 0.00 | 70 | 1008.2 |
| 20260505190507 | 27 | 244 | 0.0 | 0.0 | 0.00 | 0.00 | 0.00 | 71 | 1006.1 |
| 20260505190320 | 27 | 184 | 0.0 | 0.0 | 0.00 | 0.00 | 0.00 | 72 | 1008.4 |
| 20260505190114 | 27 | 220 | 0.0 | 0.0 | 0.00 | 0.00 | 0.00 | 73 | 1006.1 |
| 20260505185836 | 27 | 147 | 0.0 | 0.0 | 0.00 | 0.00 | 0.00 | 71 | 1008.5 |
| 20260505185531 | 27 | 189 | 0.0 | 0.0 | 0.00 | 0.00 | 0.00 | 72 | 1006.3 |
| 20260505185331 | 27 | 220 | 0.0 | 0.0 | 0.00 | 0.00 | 0.00 | 73 | 1008.6 |
| 20260505185015 | 26 | 217 | 0.0 | 0.0 | 0.00 | 0.00 | 0.00 | 73 | 1006.3 |
| 20260505184827 | 27 | 209 | 0.0 | 0.0 | 0.00 | 0.00 | 0.00 | 72 | 1008.7 |
| 20260505184547 | 26 | 227 | 0.0 | 0.0 | 0.00 | 0.00 | 0.00 | 72 | 1006.4 |
| 20260505184324 | 27 | 233 | 0.0 | 0.0 | 0.00 | 0.00 | 0.00 | 72 | 1008.7 |
| 20260505184040 | 27 | 258 | 0.0 | 0.0 | 0.00 | 0.00 | 0.00 | 73 | 1006.6 |
| 20260505183820 | 27 | 240 | 0.0 | 0.0 | 0.00 | 0.00 | 0.00 | 74 | 1008.9 |
| 20260505183531 | 26 | 256 | 0.0 | 0.0 | 0.00 | 0.00 | 0.00 | 74 | 1006.7 |
| 20260505183315 | 27 | 228 | 0.0 | 0.0 | 0.00 | 0.00 | 0.00 | 73 | 1008.9 |
| 20260505183024 | 26 | 195 | 0.0 | 0.0 | 0.00 | 0.00 | 0.00 | 73 | 1006.8 |
| 20260505182830 | 27 | 224 | 0.0 | 0.0 | 0.00 | 0.00 | 0.00 | 73 | 1009.1 |
| 20260505182505 | 26 | 231 | 0.0 | 0.0 | 0.00 | 0.00 | 0.00 | 73 | 1006.8 |
| 20260505182327 | 26 | 213 | 0.0 | 0.0 | 0.00 | 0.00 | 0.00 | 73 | 1009.1 |
| 20260505182037 | 26 | 213 | 0.0 | 0.0 | 0.00 | 0.00 | 0.00 | 74 | 1006.9 |
| 20260505181824 | 26 | 212 | 0.0 | 0.0 | 0.00 | 0.00 | 0.00 | 74 | 1009.2 |
| 20260505181532 | 26 | 240 | 0.0 | 0.0 | 0.00 | 0.00 | 0.00 | 74 | 1007.0 |
| 20260505181320 | 26 | 245 | 0.0 | 0.0 | 0.00 | 0.00 | 0.00 | 74 | 1009.2 |
| 20260505181021 | 26 | 222 | 0.0 | 0.0 | 0.00 | 0.00 | 0.00 | 74 | 1007.1 |
| 20260505180816 | 26 | 226 | 0.0 | 0.0 | 0.00 | 0.00 | 0.00 | 74 | 1009.2 |
| 20260505180514 | 26 | 185 | 0.0 | 0.0 | 0.00 | 0.00 | 0.00 | 74 | 1007.1 |
| 20260505180332 | 26 | 218 | 0.0 | 0.0 | 0.00 | 0.00 | 0.00 | 74 | 1009.4 |
| 20260505180106 | 26 | 212 | 0.0 | 0.0 | 0.00 | 0.00 | 0.00 | 75 | 1007.1 |
| 20260505175848 | 26 | 220 | 0.0 | 0.0 | 0.00 | 0.00 | 0.00 | 75 | 1009.4 |
| 20260505175528 | 26 | 227 | 0.0 | 0.0 | 0.00 | 0.00 | 0.00 | 76 | 1007.3 |
| 20260505175322 | 26 | 198 | 0.0 | 0.0 | 0.00 | 0.00 | 0.00 | 75 | 1009.5 |
| 20260505175021 | 25 | 204 | 0.0 | 0.0 | 0.00 | 0.00 | 0.00 | 76 | 1007.3 |
| 20260505174839 | 26 | 211 | 0.0 | 0.0 | 0.00 | 0.00 | 0.00 | 76 | 1009.5 |
| 20260505174547 | 25 | 222 | 0.0 | 0.0 | 0.00 | 0.00 | 0.00 | 75 | 1007.4 |
| 20260505174354 | 25 | 228 | 0.0 | 0.0 | 0.00 | 0.00 | 0.00 | 76 | 1009.6 |
| 20260505174013 | 25 | 195 | 0.0 | 0.0 | 0.00 | 0.00 | 0.00 | 76 | 1007.3 |
| 20260505173829 | 26 | 177 | 0.0 | 0.0 | 0.00 | 0.00 | 0.00 | 76 | 1009.6 |
| 20260505173506 | 25 | 218 | 0.0 | 0.0 | 0.00 | 0.00 | 0.00 | 76 | 1007.5 |
| 20260505173323 | 25 | 222 | 0.0 | 0.0 | 0.00 | 0.00 | 0.00 | 77 | 1009.6 |
| 20260505173057 | 25 | 222 | 0.0 | 0.0 | 0.00 | 0.00 | 0.00 | 77 | 1007.3 |
| 20260505172819 | 25 | 197 | 0.0 | 0.0 | 0.00 | 0.00 | 0.00 | 77 | 1009.6 |
| 20260505172549 | 25 | 217 | 0.0 | 0.0 | 0.00 | 0.00 | 0.00 | 77 | 1007.6 |
| 20260505172316 | 25 | 205 | 0.0 | 0.0 | 0.00 | 0.00 | 0.00 | 77 | 1009.8 |
| 20260505172043 | 25 | 210 | 0.0 | 0.0 | 0.00 | 0.00 | 0.00 | 77 | 1007.6 |
| 20260505171827 | 25 | 207 | 0.0 | 0.0 | 0.00 | 0.00 | 0.00 | 77 | 1009.8 |
| 20260505171541 | 25 | 224 | 0.0 | 0.0 | 0.00 | 0.00 | 0.00 | 76 | 1007.7 |
| 20260505171344 | 25 | 233 | 0.0 | 0.0 | 0.00 | 0.00 | 0.00 | 76 | 1009.9 |
| 20260505171101 | 25 | 304 | 0.0 | 0.0 | 0.00 | 0.00 | 0.00 | 77 | 1007.8 |
| 20260505170817 | 25 | 199 | 0.0 | 0.0 | 0.00 | 0.00 | 0.00 | 77 | 1010.0 |
| 20260505170553 | 25 | 218 | 0.0 | 0.0 | 0.00 | 0.00 | 0.00 | 78 | 1007.8 |
| 20260505170333 | 25 | 214 | 0.0 | 0.0 | 0.00 | 0.00 | 0.00 | 78 | 1009.9 |
| 20260505170048 | 24 | 222 | 0.0 | 0.0 | 0.00 | 0.00 | 0.00 | 78 | 1007.7 |
| 20260505165830 | 25 | 225 | 0.0 | 0.0 | 0.00 | 0.00 | 0.00 | 78 | 1009.7 |
| 20260505165541 | 24 | 197 | 0.0 | 0.0 | 0.00 | 0.00 | 0.00 | 78 | 1007.5 |
| 20260505165326 | 24 | 212 | 0.0 | 0.0 | 0.00 | 0.00 | 0.00 | 78 | 1009.6 |
| 20260505165028 | 24 | 228 | 0.0 | 0.0 | 0.00 | 0.00 | 0.00 | 78 | 1007.5 |
| 20260505164843 | 25 | 222 | 0.0 | 0.0 | 0.00 | 0.00 | 0.00 | 77 | 1009.6 |
| 20260505164554 | 24 | 208 | 0.0 | 0.0 | 0.00 | 0.00 | 0.00 | 78 | 1007.4 |
| 20260505164319 | 25 | 218 | 0.0 | 0.0 | 0.00 | 0.00 | 0.00 | 78 | 1009.6 |
| 20260505164046 | 24 | 240 | 0.0 | 0.0 | 0.00 | 0.00 | 0.00 | 79 | 1007.5 |
| 20260505163814 | 25 | 211 | 0.0 | 0.0 | 0.00 | 0.00 | 0.00 | 79 | 1009.6 |
| 20260505163538 | 24 | 197 | 0.0 | 0.0 | 0.00 | 0.00 | 0.00 | 79 | 1007.5 |
| 20260505163351 | 24 | 224 | 0.0 | 0.0 | 0.00 | 0.00 | 0.00 | 80 | 1009.7 |
| 20260505163009 | 23 | 225 | 0.0 | 0.0 | 0.00 | 0.00 | 0.00 | 79 | 1007.7 |
| 20260505162826 | 24 | 211 | 0.0 | 0.0 | 0.00 | 0.00 | 0.00 | 79 | 1009.7 |
| 20260505162559 | 23 | 229 | 0.0 | 0.0 | 0.00 | 0.00 | 0.00 | 80 | 1007.7 |
| 20260505162342 | 24 | 216 | 0.0 | 0.0 | 0.00 | 0.00 | 0.00 | 79 | 1009.8 |
| 20260505162033 | 23 | 199 | 0.0 | 0.0 | 0.00 | 0.00 | 0.00 | 80 | 1007.8 |
| 20260505161837 | 23 | 216 | 0.0 | 0.0 | 0.00 | 0.00 | 0.00 | 80 | 1010.0 |
| 20260505161600 | 23 | 234 | 0.0 | 0.0 | 0.00 | 0.00 | 0.00 | 80 | 1007.7 |
| 20260505161331 | 23 | 242 | 0.0 | 0.0 | 0.00 | 0.00 | 0.00 | 80 | 1009.9 |
| 20260505161053 | 23 | 245 | 0.0 | 0.0 | 0.00 | 0.00 | 0.00 | 80 | 1007.8 |
| 20260505160828 | 23 | 232 | 0.0 | 0.0 | 0.00 | 0.00 | 0.00 | 80 | 1009.9 |
| 20260505160545 | 23 | 234 | 0.0 | 0.0 | 0.00 | 0.00 | 0.00 | 80 | 1007.7 |
| 20260505160323 | 24 | 260 | 0.0 | 0.0 | 0.00 | 0.00 | 0.00 | 80 | 1010.0 |
| 20260505153339 | 23 | 212 | 0.0 | 0.0 | 0.00 | 0.00 | 0.00 | 81 | 1009.9 |
| 20260505153058 | 23 | 218 | 0.0 | 0.0 | 0.00 | 0.00 | 0.00 | 81 | 1007.8 |
| 20260505152832 | 23 | 216 | 0.0 | 0.0 | 0.00 | 0.00 | 0.00 | 81 | 1009.9 |
| 20260505152517 | 23 | 199 | 0.0 | 0.0 | 0.00 | 0.00 | 0.00 | 81 | 1007.8 |
| 20260505152327 | 23 | 218 | 0.0 | 0.0 | 0.00 | 0.00 | 0.00 | 81 | 1009.7 |
| 20260505152011 | 23 | 223 | 0.0 | 0.0 | 0.00 | 0.00 | 0.00 | 81 | 1007.6 |
| 20260505151844 | 23 | 227 | 0.0 | 0.0 | 0.00 | 0.00 | 0.00 | 81 | 1009.7 |
| 20260505151541 | 23 | 191 | 0.0 | 0.0 | 0.00 | 0.00 | 0.00 | 82 | 1007.6 |
| 20260505151318 | 23 | 207 | 0.0 | 0.0 | 0.00 | 0.00 | 0.00 | 82 | 1009.7 |
| 20260505151034 | 22 | 233 | 0.0 | 0.0 | 0.00 | 0.00 | 0.00 | 82 | 1007.5 |
| 20260505150816 | 23 | 228 | 0.0 | 0.0 | 0.00 | 0.00 | 0.00 | 81 | 1009.6 |
| 20260505150525 | 22 | 243 | 0.0 | 0.0 | 0.00 | 0.00 | 0.00 | 82 | 1007.6 |
| 20260505150331 | 23 | 196 | 0.0 | 0.0 | 0.00 | 0.00 | 0.00 | 81 | 1009.8 |
| 20260505140521 | 21 | 224 | 17.7 | 35.4 | 0.00 | 0.00 | 0.00 | 84 | 1007.5 |
| 20260505140322 | 22 | 222 | 19.3 | 35.4 | 0.00 | 0.00 | 0.00 | 84 | 1009.4 |
| 20260505124818 | 21 | 229 | 12.9 | 22.5 | 0.00 | 0.00 | 0.00 | 86 | 1008.5 |
| 20260505124547 | 21 | 235 | 9.7 | 19.3 | 0.00 | 0.00 | 0.00 | 86 | 1006.4 |
| 20260505124315 | 21 | 228 | 12.9 | 19.3 | 0.00 | 0.00 | 0.00 | 86 | 1008.5 |
| 20260505124040 | 21 | 198 | 12.9 | 24.1 | 0.00 | 0.00 | 0.00 | 86 | 1006.5 |
| 20260505123853 | 21 | 236 | 9.7 | 24.1 | 0.00 | 0.00 | 0.00 | 87 | 1008.5 |
| 20260505123508 | 21 | 206 | 14.5 | 24.1 | 0.00 | 0.00 | 0.00 | 87 | 1006.4 |
| 20260505123329 | 21 | 214 | 11.3 | 24.1 | 0.00 | 0.00 | 0.00 | 87 | 1008.3 |
| 20260505123104 | 21 | 241 | 9.7 | 19.3 | 0.00 | 0.00 | 0.00 | 87 | 1006.3 |
| 20260505122845 | 21 | 222 | 11.3 | 19.3 | 0.00 | 0.00 | 0.00 | 87 | 1008.3 |
| 20260505122530 | 21 | 241 | 8.0 | 19.3 | 0.00 | 0.00 | 0.00 | 87 | 1006.3 |
| 20260505122319 | 21 | 241 | 11.3 | 19.3 | 0.00 | 0.00 | 0.00 | 87 | 1008.3 |
| 20260505122026 | 21 | 212 | 11.3 | 19.3 | 0.00 | 0.00 | 0.00 | 87 | 1006.2 |
| 20260505121816 | 21 | 188 | 11.3 | 16.1 | 0.00 | 0.00 | 0.00 | 87 | 1008.2 |
| 20260505121507 | 21 | 193 | 9.7 | 16.1 | 0.00 | 0.00 | 0.00 | 87 | 1006.1 |
| 20260505121351 | 21 | 222 | 12.9 | 16.1 | 0.00 | 0.00 | 0.00 | 87 | 1008.2 |
| 20260505121041 | 21 | 211 | 9.7 | 17.7 | 0.00 | 0.00 | 0.00 | 87 | 1006.2 |
| 20260505120826 | 21 | 212 | 12.9 | 19.3 | 0.00 | 0.00 | 0.00 | 87 | 1008.2 |
| 20260505120531 | 21 | 243 | 9.7 | 17.7 | 0.00 | 0.00 | 0.00 | 87 | 1006.1 |
| 20260505120322 | 21 | 207 | 9.7 | 25.7 | 0.00 | 0.00 | 0.00 | 87 | 1008.1 |
| 20260505120020 | 21 | 206 | 11.3 | 25.7 | 0.00 | 0.00 | 0.00 | 86 | 1006.1 |
| 20260505115837 | 21 | 197 | 9.7 | 25.7 | 0.00 | 0.00 | 0.00 | 86 | 1008.1 |
| 20260505115544 | 20 | 200 | 12.9 | 19.3 | 0.00 | 0.00 | 0.00 | 87 | 1006.1 |
| 20260505115351 | 21 | 224 | 9.7 | 17.7 | 0.00 | 0.00 | 0.00 | 87 | 1008.0 |
| 20260505115007 | 20 | 201 | 8.0 | 14.5 | 0.00 | 0.00 | 0.00 | 87 | 1006.0 |
| 20260505114826 | 21 | 191 | 8.0 | 14.5 | 0.00 | 0.00 | 0.00 | 87 | 1008.0 |
| 20260505114600 | 20 | 206 | 6.4 | 19.3 | 0.00 | 0.00 | 0.00 | 87 | 1005.9 |
| 20260505114324 | 21 | 201 | 6.4 | 19.3 | 0.00 | 0.00 | 0.00 | 86 | 1007.8 |
| 20260505114054 | 20 | 203 | 8.0 | 19.3 | 0.00 | 0.00 | 0.00 | 86 | 1005.9 |
| 20260505113819 | 21 | 197 | 12.9 | 19.3 | 0.00 | 0.00 | 0.00 | 86 | 1007.8 |
| 20260505113548 | 20 | 190 | 8.0 | 17.7 | 0.00 | 0.00 | 0.00 | 86 | 1005.8 |
| 20260505113314 | 21 | 208 | 9.7 | 17.7 | 0.00 | 0.00 | 0.00 | 86 | 1007.7 |
| 20260505113038 | 20 | 189 | 11.3 | 24.1 | 0.00 | 0.00 | 0.00 | 86 | 1005.8 |
| 20260505112852 | 21 | 185 | 11.3 | 24.1 | 0.00 | 0.00 | 0.00 | 86 | 1007.7 |
| 20260505112502 | 20 | 210 | 14.5 | 24.1 | 0.00 | 0.00 | 0.00 | 86 | 1005.7 |
| 20260505112330 | 21 | 199 | 12.9 | 25.7 | 0.00 | 0.00 | 0.00 | 86 | 1007.7 |
| 20260505112055 | 21 | 219 | 16.1 | 25.7 | 0.00 | 0.00 | 0.00 | 86 | 1005.8 |
| 20260505111825 | 21 | 195 | 16.1 | 25.7 | 0.00 | 0.00 | 0.00 | 86 | 1007.8 |
| 20260505111547 | 21 | 198 | 14.5 | 24.1 | 0.00 | 0.00 | 0.00 | 86 | 1005.7 |
| 20260505111320 | 21 | 213 | 16.1 | 29.0 | 0.00 | 0.00 | 0.00 | 86 | 1007.7 |
| 20260505111039 | 20 | 214 | 14.5 | 29.0 | 0.00 | 0.00 | 0.00 | 86 | 1005.6 |
| 20260505110837 | 21 | 183 | 14.5 | 29.0 | 0.00 | 0.00 | 0.00 | 86 | 1007.6 |
| 20260505110502 | 21 | 214 | 12.9 | 22.5 | 0.00 | 0.00 | 0.00 | 86 | 1005.6 |
| 20260505110328 | 21 | 204 | 11.3 | 22.5 | 0.00 | 0.00 | 0.00 | 86 | 1007.6 |
| 20260505110111 | 21 | 216 | 16.1 | 22.5 | 0.00 | 0.00 | 0.00 | 86 | 1005.7 |
| 20260505102025 | 21 | 218 | 9.7 | 22.5 | 0.00 | 0.00 | 0.00 | 86 | 1006.2 |
| 20260505101832 | 21 | 226 | 14.5 | 22.5 | 0.00 | 0.00 | 0.00 | 86 | 1008.2 |
| 20260505101506 | 21 | 194 | 12.9 | 22.5 | 0.00 | 0.00 | 0.00 | 86 | 1006.2 |
| 20260505101328 | 21 | 179 | 14.5 | 22.5 | 0.00 | 0.00 | 0.00 | 86 | 1008.1 |
| 20260505101100 | 21 | 210 | 12.9 | 24.1 | 0.00 | 0.00 | 0.00 | 86 | 1006.1 |
| 20260505100844 | 21 | 216 | 14.5 | 24.1 | 0.00 | 0.00 | 0.00 | 86 | 1008.1 |
| 20260505100531 | 21 | 220 | 14.5 | 24.1 | 0.00 | 0.00 | 0.00 | 86 | 1006.1 |
| 20260505100316 | 21 | 183 | 12.9 | 22.5 | 0.00 | 0.00 | 0.00 | 86 | 1008.0 |
| 20260505100019 | 20 | 207 | 9.7 | 20.9 | 0.00 | 0.00 | 0.00 | 86 | 1006.0 |
| 20260505095829 | 21 | 179 | 12.9 | 20.9 | 0.00 | 0.00 | 0.00 | 86 | 1007.9 |
| 20260505095510 | 20 | 158 | 11.3 | 20.9 | 0.00 | 0.00 | 0.00 | 86 | 1005.9 |
| 20260505095326 | 21 | 193 | 12.9 | 20.9 | 0.00 | 0.00 | 0.00 | 86 | 1007.8 |
| 20260505095100 | 20 | 206 | 12.9 | 20.9 | 0.00 | 0.00 | 0.00 | 86 | 1005.9 |
| 20260505094842 | 21 | 189 | 12.9 | 20.9 | 0.00 | 0.00 | 0.00 | 86 | 1007.9 |
| 20260505094532 | 20 | 192 | 12.9 | 22.5 | 0.00 | 0.00 | 0.00 | 86 | 1006.1 |
| 20260505094337 | 21 | 200 | 11.3 | 27.4 | 0.00 | 0.00 | 0.00 | 86 | 1008.0 |
| 20260505094052 | 20 | 197 | 12.9 | 27.4 | 0.00 | 0.00 | 0.00 | 86 | 1006.1 |
| 20260505093831 | 21 | 209 | 14.5 | 27.4 | 0.00 | 0.00 | 0.00 | 86 | 1008.1 |
| 20260505093545 | 20 | 214 | 14.5 | 25.7 | 0.00 | 0.00 | 0.00 | 86 | 1006.2 |
| 20260505093328 | 21 | 213 | 16.1 | 22.5 | 0.00 | 0.00 | 0.00 | 86 | 1008.2 |
| 20260505093039 | 20 | 189 | 12.9 | 25.7 | 0.00 | 0.00 | 0.00 | 86 | 1006.1 |
| 20260505092825 | 21 | 185 | 11.3 | 25.7 | 0.00 | 0.00 | 0.00 | 86 | 1008.0 |
| 20260505092529 | 20 | 220 | 14.5 | 25.7 | 0.00 | 0.00 | 0.00 | 86 | 1006.0 |
| 20260505092321 | 21 | 200 | 16.1 | 24.1 | 0.00 | 0.00 | 0.00 | 86 | 1008.0 |
| 20260505092023 | 20 | 199 | 12.9 | 24.1 | 0.00 | 0.00 | 0.00 | 86 | 1006.1 |
| 20260505091817 | 21 | 203 | 12.9 | 24.1 | 0.00 | 0.00 | 0.00 | 86 | 1008.2 |
| 20260505091506 | 20 | 206 | 14.5 | 20.9 | 0.00 | 0.00 | 0.00 | 86 | 1006.2 |
| 20260505091333 | 21 | 214 | 12.9 | 24.1 | 0.00 | 0.00 | 0.00 | 86 | 1008.1 |
| 20260505091058 | 20 | 187 | 12.9 | 24.1 | 0.00 | 0.00 | 0.00 | 86 | 1006.2 |
| 20260505090830 | 21 | 226 | 12.9 | 24.1 | 0.00 | 0.00 | 0.00 | 86 | 1008.1 |
| 20260505090552 | 20 | 197 | 14.5 | 29.0 | 0.00 | 0.00 | 0.00 | 86 | 1006.3 |
| 20260505090325 | 21 | 210 | 11.3 | 29.0 | 0.00 | 0.00 | 0.00 | 86 | 1008.2 |
| 20260505090044 | 20 | 204 | 12.9 | 29.0 | 0.00 | 0.00 | 0.00 | 87 | 1006.3 |
| 20260505085821 | 21 | 219 | 17.7 | 29.0 | 0.00 | 0.00 | 0.00 | 87 | 1008.3 |
| 20260505085536 | 20 | 220 | 12.9 | 19.3 | 0.00 | 0.00 | 0.00 | 87 | 1006.3 |
| 20260505085317 | 20 | 206 | 14.5 | 19.3 | 0.00 | 0.00 | 0.00 | 87 | 1008.2 |
| 20260505085031 | 20 | 201 | 12.9 | 25.7 | 0.00 | 0.00 | 0.00 | 87 | 1006.5 |
| 20260505084833 | 20 | 210 | 12.9 | 25.7 | 0.00 | 0.00 | 0.00 | 87 | 1008.4 |
| 20260505084513 | 20 | 231 | 16.1 | 25.7 | 0.00 | 0.00 | 0.00 | 87 | 1006.4 |
| 20260505084328 | 20 | 216 | 17.7 | 25.7 | 0.00 | 0.00 | 0.00 | 87 | 1008.4 |
| 20260505084004 | 20 | 197 | 16.1 | 27.4 | 0.00 | 0.00 | 0.00 | 87 | 1006.5 |
| 20260505083824 | 20 | 211 | 14.5 | 22.5 | 0.00 | 0.00 | 0.00 | 87 | 1008.4 |
| 20260505083558 | 20 | 189 | 14.5 | 20.9 | 0.00 | 0.00 | 0.00 | 87 | 1006.6 |
| 20260505083319 | 20 | 186 | 16.1 | 20.9 | 0.00 | 0.00 | 0.00 | 87 | 1008.5 |
| 20260505083105 | 20 | 193 | 12.9 | 22.5 | 0.00 | 0.00 | 0.00 | 87 | 1006.7 |
| 20260505082815 | 20 | 195 | 12.9 | 20.9 | 0.00 | 0.00 | 0.00 | 86 | 1008.7 |
| 20260505082542 | 20 | 224 | 12.9 | 20.9 | 0.00 | 0.00 | 0.00 | 86 | 1007.0 |
| 20260505082331 | 20 | 204 | 12.9 | 20.9 | 0.00 | 0.00 | 0.00 | 86 | 1008.8 |
| 20260505082032 | 20 | 195 | 11.3 | 20.9 | 0.00 | 0.00 | 0.00 | 86 | 1006.8 |
| 20260505081828 | 20 | 199 | 9.7 | 16.1 | 0.00 | 0.00 | 0.00 | 86 | 1008.8 |
| 20260505081526 | 20 | 209 | 8.0 | 16.1 | 0.00 | 0.00 | 0.00 | 86 | 1006.9 |
| 20260505081343 | 20 | 208 | 12.9 | 16.1 | 0.00 | 0.00 | 0.00 | 86 | 1008.9 |
| 20260505081053 | 20 | 205 | 9.7 | 14.5 | 0.00 | 0.00 | 0.00 | 86 | 1007.0 |
| 20260505080853 | 20 | 212 | 6.4 | 16.1 | 0.00 | 0.00 | 0.00 | 86 | 1008.9 |
| 20260505080519 | 20 | 218 | 8.0 | 17.7 | 0.00 | 0.00 | 0.00 | 86 | 1007.1 |
| 20260505080327 | 20 | 183 | 9.7 | 17.7 | 0.00 | 0.00 | 0.00 | 86 | 1009.1 |
| 20260505080008 | 20 | 177 | 11.3 | 17.7 | 0.00 | 0.00 | 0.00 | 86 | 1007.1 |
| 20260505075823 | 20 | 216 | 9.7 | 20.9 | 0.00 | 0.00 | 0.00 | 86 | 1009.0 |
| 20260505075504 | 20 | 193 | 8.0 | 20.9 | 0.00 | 0.00 | 0.00 | 86 | 1007.1 |
| 20260505075321 | 20 | 156 | 8.0 | 20.9 | 0.00 | 0.00 | 0.00 | 86 | 1009.0 |
| 20260505075102 | 20 | 210 | 11.3 | 20.9 | 0.00 | 0.00 | 0.00 | 86 | 1007.3 |
| 20260505074816 | 20 | 191 | 8.0 | 19.3 | 0.00 | 0.00 | 0.00 | 86 | 1009.1 |
| 20260505074554 | 20 | 202 | 11.3 | 19.3 | 0.00 | 0.00 | 0.00 | 86 | 1007.0 |
| 20260505074350 | 20 | 181 | 14.5 | 17.7 | 0.00 | 0.00 | 0.00 | 86 | 1008.9 |
| 20260505074028 | 20 | 183 | 9.7 | 17.7 | 0.00 | 0.00 | 0.00 | 86 | 1007.1 |
| 20260505073825 | 21 | 211 | 9.7 | 17.7 | 0.00 | 0.00 | 0.00 | 86 | 1009.1 |
| 20260505073524 | 20 | 193 | 8.0 | 17.7 | 0.00 | 0.00 | 0.00 | 86 | 1007.2 |
| 20260505073321 | 21 | 192 | 11.3 | 16.1 | 0.00 | 0.00 | 0.00 | 86 | 1009.1 |
| 20260505073005 | 20 | 195 | 11.3 | 17.7 | 0.00 | 0.00 | 0.00 | 86 | 1007.2 |
| 20260505072839 | 21 | 169 | 12.9 | 19.3 | 0.00 | 0.00 | 0.00 | 85 | 1009.2 |
| 20260505072537 | 20 | 166 | 9.7 | 20.9 | 0.00 | 0.00 | 0.00 | 85 | 1007.3 |
| 20260505072334 | 21 | 152 | 11.3 | 20.9 | 0.00 | 0.00 | 0.00 | 85 | 1009.2 |
| 20260505072033 | 20 | 173 | 11.3 | 20.9 | 0.00 | 0.00 | 0.00 | 85 | 1007.5 |
| 20260505071851 | 21 | 167 | 11.3 | 22.5 | 0.00 | 0.00 | 0.00 | 85 | 1009.3 |
| 20260505071558 | 20 | 198 | 12.9 | 20.9 | 0.00 | 0.00 | 0.00 | 85 | 1007.5 |
| 20260505071326 | 21 | 211 | 11.3 | 20.9 | 0.00 | 0.00 | 0.00 | 85 | 1009.5 |
| 20260505071052 | 20 | 181 | 12.9 | 20.9 | 0.00 | 0.00 | 0.00 | 85 | 1007.7 |
| 20260505070823 | 21 | 177 | 17.7 | 20.9 | 0.00 | 0.00 | 0.00 | 85 | 1009.6 |
| 20260505070542 | 20 | 186 | 12.9 | 20.9 | 0.00 | 0.00 | 0.00 | 85 | 1007.6 |
| 20260505070320 | 21 | 183 | 16.1 | 22.5 | 0.00 | 0.00 | 0.00 | 85 | 1009.4 |
| 20260505070034 | 21 | 193 | 8.0 | 24.1 | 0.00 | 0.00 | 0.00 | 85 | 1007.7 |
| 20260505065835 | 21 | 180 | 16.1 | 24.1 | 0.00 | 0.00 | 0.00 | 85 | 1009.5 |
| 20260505065559 | 21 | 137 | 14.5 | 24.1 | 0.00 | 0.00 | 0.00 | 85 | 1007.7 |
| 20260505065352 | 21 | 162 | 17.7 | 24.1 | 0.00 | 0.00 | 0.00 | 84 | 1009.6 |
| 20260505065028 | 21 | 203 | 12.9 | 22.5 | 0.00 | 0.00 | 0.00 | 84 | 1007.7 |
| 20260505064846 | 21 | 195 | 14.5 | 25.7 | 0.00 | 0.00 | 0.00 | 84 | 1009.5 |
| 20260505064639 | 21 | 206 | 14.5 | 25.7 | 0.00 | 0.00 | 0.00 | 84 | 1007.7 |
| 20260505064320 | 21 | 183 | 14.5 | 25.7 | 0.00 | 0.00 | 0.00 | 84 | 1009.6 |
| 20260505064048 | 21 | 196 | 16.1 | 25.7 | 0.00 | 0.00 | 0.00 | 84 | 1007.8 |
| 20260505063817 | 21 | 188 | 16.1 | 25.7 | 0.00 | 0.00 | 0.00 | 84 | 1009.6 |
| 20260505063542 | 21 | 172 | 12.9 | 25.7 | 0.00 | 0.00 | 0.00 | 83 | 1007.7 |
| 20260505063353 | 21 | 192 | 19.3 | 25.7 | 0.00 | 0.00 | 0.00 | 83 | 1009.6 |
| 20260505063007 | 21 | 164 | 12.9 | 25.7 | 0.00 | 0.00 | 0.00 | 83 | 1007.8 |
| 20260505062828 | 21 | 191 | 17.7 | 25.7 | 0.00 | 0.00 | 0.00 | 83 | 1009.7 |
| 20260505062600 | 21 | 172 | 16.1 | 25.7 | 0.00 | 0.00 | 0.00 | 83 | 1007.8 |
| 20260505062325 | 21 | 196 | 14.5 | 22.5 | 0.00 | 0.00 | 0.00 | 83 | 1009.6 |
| 20260505062049 | 21 | 185 | 11.3 | 22.5 | 0.00 | 0.00 | 0.00 | 83 | 1007.8 |
| 20260505061821 | 21 | 189 | 12.9 | 25.7 | 0.00 | 0.00 | 0.00 | 83 | 1009.7 |
| 20260505061541 | 21 | 186 | 14.5 | 25.7 | 0.00 | 0.00 | 0.00 | 83 | 1007.7 |
| 20260505061316 | 21 | 201 | 16.1 | 25.7 | 0.00 | 0.00 | 0.00 | 83 | 1009.6 |
| 20260505061032 | 21 | 205 | 12.9 | 29.0 | 0.00 | 0.00 | 0.00 | 83 | 1007.7 |
| 20260505060829 | 21 | 216 | 12.9 | 29.0 | 0.00 | 0.00 | 0.00 | 82 | 1009.6 |
| 20260505060514 | 21 | 183 | 16.1 | 29.0 | 0.00 | 0.00 | 0.00 | 82 | 1007.6 |
| 20260505060323 | 21 | 179 | 16.1 | 29.0 | 0.00 | 0.00 | 0.00 | 82 | 1009.6 |
| 20260505060108 | 21 | 178 | 12.9 | 22.5 | 0.00 | 0.00 | 0.00 | 82 | 1007.8 |
| 20260505055816 | 21 | 195 | 14.5 | 22.5 | 0.00 | 0.00 | 0.00 | 82 | 1009.8 |
| 20260505055544 | 21 | 195 | 11.3 | 22.5 | 0.00 | 0.00 | 0.00 | 81 | 1007.9 |
| 20260505055332 | 21 | 201 | 14.5 | 22.5 | 0.00 | 0.00 | 0.00 | 81 | 1009.9 |
| 20260505055036 | 21 | 195 | 14.5 | 19.3 | 0.00 | 0.00 | 0.00 | 81 | 1008.1 |
| 20260505054828 | 21 | 203 | 9.7 | 20.9 | 0.00 | 0.00 | 0.00 | 81 | 1010.0 |
| 20260505054543 | 21 | 179 | 11.3 | 20.9 | 0.00 | 0.00 | 0.00 | 81 | 1008.1 |
| 20260505054325 | 21 | 198 | 12.9 | 20.9 | 0.00 | 0.00 | 0.00 | 81 | 1010.0 |
| 20260505054022 | 21 | 153 | 9.7 | 20.9 | 0.00 | 0.00 | 0.00 | 81 | 1008.2 |
| 20260505053821 | 21 | 204 | 9.7 | 20.9 | 0.00 | 0.00 | 0.00 | 81 | 1010.0 |
| 20260505053502 | 21 | 203 | 12.9 | 20.9 | 0.00 | 0.00 | 0.00 | 80 | 1008.1 |
| 20260505053317 | 21 | 183 | 11.3 | 17.7 | 0.00 | 0.00 | 0.00 | 80 | 1009.9 |
| 20260505053054 | 21 | 197 | 9.7 | 22.5 | 0.00 | 0.00 | 0.00 | 80 | 1008.1 |
| 20260505052814 | 22 | 204 | 11.3 | 22.5 | 0.00 | 0.00 | 0.00 | 80 | 1009.9 |
| 20260505052548 | 21 | 195 | 12.9 | 22.5 | 0.00 | 0.00 | 0.00 | 80 | 1008.2 |
| 20260505052348 | 22 | 184 | 12.9 | 22.5 | 0.00 | 0.00 | 0.00 | 79 | 1009.9 |
| 20260505052024 | 21 | 209 | 9.7 | 20.9 | 0.00 | 0.00 | 0.00 | 79 | 1008.1 |
| 20260505051823 | 22 | 191 | 12.9 | 20.9 | 0.00 | 0.00 | 0.00 | 79 | 1009.9 |
| 20260505051504 | 21 | 189 | 6.4 | 19.3 | 0.00 | 0.00 | 0.00 | 78 | 1008.1 |
| 20260505051321 | 22 | 203 | 9.7 | 19.3 | 0.00 | 0.00 | 0.00 | 78 | 1009.9 |
| 20260505051057 | 21 | 200 | 11.3 | 19.3 | 0.00 | 0.00 | 0.00 | 78 | 1008.1 |
| 20260505050817 | 22 | 170 | 11.3 | 17.7 | 0.00 | 0.00 | 0.00 | 78 | 1009.8 |
| 20260505050548 | 21 | 197 | 9.7 | 19.3 | 0.00 | 0.00 | 0.00 | 78 | 1008.1 |
| 20260505050353 | 22 | 152 | 11.3 | 19.3 | 0.00 | 0.00 | 0.00 | 78 | 1009.8 |
| 20260505050114 | 21 | 197 | 12.9 | 19.3 | 0.00 | 0.00 | 0.00 | 78 | 1008.0 |